Location: Bednik
(45.3500°N, 16.3833°E)
Time: 17:47:03
(UTC+00:00)

USA 267 - Pass Details

Date: 08 August 2020
Orbit: 1101 x 1106 km, 123.0° (Epoch: 22 September)

Event Time Altitude Azimuth Distance (km) Brightness Sun altitude
Rises 19:38:26 0° 51° (NE) 3,929 6.1 -13.7°
Reaches altitude 10° 19:40:55 10° 51° (NE) 2,969 5.4 -14.0°
Maximum altitude 19:47:30 90° 336° (NNW) 1,110 3.3 -14.9°
Drops below altitude 10° 19:54:04 10° 234° (SW) 2,961 5.6 -15.8°
Sets 19:56:33 0° 234° (SW) 3,917 6.3 -16.1°
